Regional Weather Roundup
Issued by NWS

Home | Current Version | Previous Version | Text Only | Print | Product List | Glossary Off
Versions: 1 2 3 4 5 6 7 8 9 10 11 12 13 14 15 16 17 18 19 20 21 22 23 24 25 26 27 28 29 30 31 32 33 34 35 36 37 38 39 40 41 42 43 44 45 46 47 48 49 50

000
ASUS43 KLOT 300400
RWRIL

ILLINOIS REGIONAL WEATHER ROUNDUP
NATIONAL WEATHER SERVICE CHICAGO/ROMEOVILLE IL
1100 PM CDT MON SEP 29 2014

NOTE: "FAIR" INDICATES FEW OR NO CLOUDS BELOW 12,000 FEET WITH NO
SIGNIFICANT WEATHER AND/OR OBSTRUCTIONS TO VISIBILITY.

* THESE STATIONS ARE NOT UNDER NWS QUALITY CONTROL. THEY ALSO MAY NOT
  REPORT WEATHER SUCH AS PRECIPITATION OR FOG.

ILZ001-002-007-009-015-016-024-300500-
NORTHWEST ILLINOIS

CITY           SKY/WX    TMP DP  RH WIND       PRES   REMARKS
MOLINE         NOT AVBL
$$

ILZ003-004-008-010-011-017-018-300500-
NORTH CENTRAL ILLINOIS

CITY           SKY/WX    TMP DP  RH WIND       PRES   REMARKS
ROCKFORD       CLOUDY    56  50  80 NE10      30.04S
FREEPORT*      CLOUDY    53  49  87 NE12      30.04S
$$

ILZ005-006-012>014-019>023-300500-
NORTHEAST ILLINOIS

CITY           SKY/WX    TMP DP  RH WIND       PRES   REMARKS
CHICAGO-OHARE  LGT RAIN  56  51  84 NE14G22   30.02S
CHICAGO-MIDWAY NOT AVBL
AURORA         CLOUDY    57  52  83 NE12      30.00F
LANSING*       CLOUDY    58  54  85 N15G21    30.00S
WAUKEGAN       NOT AVBL
DUPAGE AIRPORT CLOUDY    56  51  84 NE13      30.00F
WHEELING       CLOUDY    57  50  77 N12G21    30.04S
NORTHERLY ISL    N/A     57  52  83 MISG        N/A
$$

LMZ740>746-300500-
SOUTHERN LAKE MICHIGAN

STATION/POSITION SKY/WX   TEMP    WIND        PRES    VSBY  WAVE
                          AIR SEA DIR/SP/G                  HT/PER
                          (F)     (DEG/KT/KT) (MB)    (MI)  (FT/S)
SOUTHERN BUOY              54 63  360/ 23/ 29 1015.8R         9/ 7
WAUKEGAN HARBOR                    30/ 23/ 28   N/A
HARRISON CRIB              57      20/ 21/ 24   N/A
BURNHAM HARBOR             57      10/ 13/ 20   N/A
CALUMET HARBOR                    360/ 12/ 17   N/A
MICHIGAN CITY              58     360/ 21/ 26   N/A
MICHIGAN CITY 6N           59 65   20/ 17/ 23   N/A           7/ 2
ST. JOSEPH                 58 63   10/ 19/ 25   N/A           7/ 2
$$

ILZ025>027-034>036-040-047-049-050-058-095>099-300500-
WEST-CENTRAL ILLINOIS

CITY           SKY/WX    TMP DP  RH WIND       PRES   REMARKS
QUINCY         CLEAR     66  57  72 CALM      29.96S
$$

ILZ028>032-037-038-041>044-048-051>054-059>061-300500-
CENTRAL ILLINOIS

CITY           SKY/WX    TMP DP  RH WIND       PRES   REMARKS
DECATUR        CLEAR     65  59  81 CALM      29.96S
PEORIA         CLEAR     65  59  81 CALM      29.95S
SPRINGFIELD    CLEAR     61  57  87 CALM      29.96S
TAYLORVILLE    NOT AVBL
$$

ILZ033-039-045-046-055>057-062-063-300500-
EAST-CENTRAL ILLINOIS

CITY           SKY/WX    TMP DP  RH WIND       PRES   REMARKS
CHAMPAIGN      CLEAR     61  55  81 W3        29.95F
MATTOON        CLEAR     64  57  78 CALM      29.95S
$$

ILZ079-100>102-300500-
SOUTHWEST ILLINOIS

CITY           SKY/WX    TMP DP  RH WIND       PRES   REMARKS
BELLEVILLE     CLEAR     64  61  88 CALM      29.95F FOG
CAHOKIA*       CLEAR     61  59  93 CALM      29.96S
SPARTA*        CLEAR     62  58  87 CALM      29.98S
$$

ILZ064>066-069>071-074>076-080>082-084>086-088>090-092>094-300500-
SOUTH-CENTRAL ILLINOIS

CITY           SKY/WX    TMP DP  RH WIND       PRES   REMARKS
CARBONDALE     CLEAR     59  56  89 CALM      29.96S
$$

ILZ067-068-072-073-078-083-087-091-300500-
SOUTHEAST ILLINOIS

CITY           SKY/WX    TMP DP  RH WIND       PRES   REMARKS
LAWRENCEVILLE  CLEAR     61  57  87 CALM      29.95F
ROBINSON*      CLEAR     58  56  94 CALM      29.96S
$$

ABBREVIATIONS USED IN REMARKS
   TC - TEMPERATURE IN CELSIUS
  WCI - WIND CHILL INDEX
   HX - HEAT INDEX
  VSB - VISIBILITY
$$




USA.gov is the U.S. government's official web portal to all federal, state and local government web resources and services.